Home > Weather > Qatif > Past weeks

Flag for Saudi Arabia Past Weather in Qatif, Saudi Arabia — Yesterday and Last 2 Weeks

Now
108 °F

Sunny.


Feels Like: 103 °F
Forecast: 86 / 105 °F
Wind: 12 mph from North

Location: King Fahd International Airport

Current Time: Jul 24, 2016 at 11:56:26 AM

Latest Report: Jul 24, 2016 at 11:00 AM


Visibility: 5 mi

Pressure: 29.45 "Hg

Humidity: 11%

Dew Point: 43 °F

Location of QatifLocation

Past Weather in Qatif — Graph

°F

Qatif Temperature Yesterday

Maximum temperature yesterday: 113 °F (at 1:00 PM)
Minimum temperature yesterday: 93 °F (at 2:00 AM)
Average temperature yesterday: 102 °F

High & Low Weather Summary for the Past Weeks

 TemperatureHumidityPressure
High118 °F (Jul 20, 12:00 PM)84% (Jul 20, 5:00 AM)29.53 "Hg (Jul 20, 5:00 AM)
Low81 °F (Jul 18, 6:00 AM)5% (Jul 14, 1:00 PM)29.36 "Hg (Jul 23, 12:00 PM)
Average100 °F26%29.45 "Hg
* Reported Jul 9 10:00 AM — Jul 24 10:00 AM, Qatif, Weather by CustomWeather, © 2016

Note: Actual official high and low records may vary slightly from our data, if they occured in-between our weather recording intervals... More about our weather records

Advertising

Qatif Weather History for the Previous 24 Hours

Scroll right to see more
 ConditionsComfort  
Time TempWeatherWind HumidityBarometerVisibility
10:00 AM
Sun, Jul 24
106 °FSunny.13 mph13%29.45 "Hg4 mi
9:00 AM102 °FSunny.6 mph14%29.45 "Hg4 mi
8:00 AM97 °FSunny.5 mph11%29.45 "Hg4 mi
7:00 AM91 °FDuststorm.6 mph13%29.45 "Hg2 mi
6:00 AM90 °FDuststorm.5 mph36%29.42 "Hg1 mi
5:00 AM90 °FDuststorm.5 mph38%29.42 "Hg1 mi
4:00 AM93 °FDuststorm.9 mph30%29.42 "Hg2 mi
3:00 AM95 °FDuststorm.8 mph28%29.39 "Hg2 mi
2:00 AM97 °FDuststorm.8 mph28%29.39 "Hg2 mi
1:00 AM99 °FDuststorm.10 mph25%29.39 "Hg2 mi
12:00 AM97 °FClear.6 mph27%29.39 "Hg10 mi
11:00 PM
Sat, Jul 23
99 °FClear.5 mph29%29.39 "Hg10 mi
10:00 PM99 °FClear.8 mph27%29.39 "Hg10 mi
9:00 PM99 °FClear.8 mph25%29.39 "Hg10 mi
8:00 PM102 °FClear.9 mph23%29.36 "Hg5 mi
7:00 PM102 °FClear.12 mph21%29.36 "Hg5 mi
6:00 PM106 °FClear.17 mph18%29.36 "Hg5 mi
5:00 PM108 °FClear.21 mph16%29.36 "Hg4 mi
4:00 PM109 °FLow level haze.26 mph12%29.36 "Hg2 mi
3:00 PM111 °FLow level haze.29 mph11%29.36 "Hg2 mi
2:00 PM111 °FLow level haze.31 mph12%29.36 "Hg2 mi
1:00 PM113 °FLow level haze.32 mph12%29.39 "Hg2 mi
12:00 PM111 °FLow level haze.33 mph12%29.36 "Hg3 mi
11:00 AM111 °FLow level haze.29 mph13%29.39 "Hg3 mi
Weather by CustomWeather, © 2016

See weather overviewHow to use our weather pages